This is the latest recevied weather packets stored in our database for station/object KB0BS-13. If no packets are shown the sender has not sent any weather packets the latest 10 day(s).
| Time | Temp. | Humidity | Pressure | Rain* | Wind** | Luminosity | Snow |
|---|---|---|---|---|---|---|---|
| 1777254343 | 8.89° C | 63% | 1022.7 hPa | 0 mm | - | 0 W/m² | - |
| 1777254039 | 9.44° C | 63% | 1022.5 hPa | 0 mm | - | 0 W/m² | - |
| 1777253736 | 8.89° C | 65% | 1022.6 hPa | 0 mm | - | 0 W/m² | - |
| 1777253433 | 8.89° C | 66% | 1022.6 hPa | 0 mm | - | 0 W/m² | - |
| 1777253131 | 8.89° C | 65% | 1022.5 hPa | 0 mm | - | 0 W/m² | - |
| 1777252828 | 9.44° C | 65% | 1022.3 hPa | 0 mm | - | 0 W/m² | - |
| 1777252525 | 9.44° C | 64% | 1022.2 hPa | 0 mm | - | 0 W/m² | - |
| 1777252222 | 9.44° C | 65% | 1022.2 hPa | 0 mm | - | 0 W/m² | - |
| 1777251920 | 10° C | 63% | 1022.2 hPa | 0 mm | - | 0 W/m² | - |
| 1777251617 | 10° C | 63% | 1022 hPa | 0 mm | - | 0 W/m² | - |
| 1777251314 | 10° C | 63% | 1022 hPa | 0 mm | - | 1 W/m² | - |
| 1777251009 | 10.56° C | 64% | 1021.6 hPa | 0 mm | - | 1 W/m² | - |
| 1777250706 | 10.56° C | 64% | 1021.7 hPa | 0 mm | - | 2 W/m² | - |
| 1777250403 | 11.11° C | 60% | 1021.6 hPa | 0 mm | - | 4 W/m² | - |
| 1777250102 | 11.67° C | 57% | 1021.6 hPa | 0 mm | - | 6 W/m² | - |
| 1777249799 | 11.67° C | 56% | 1021.6 hPa | 0 mm | - | 10 W/m² | - |
| 1777249495 | 12.22° C | 57% | 1021.4 hPa | 0 mm | - | 14 W/m² | - |
| 1777249192 | 12.22° C | 53% | 1021.7 hPa | 0 mm | - | 18 W/m² | - |
| 1777248884 | 12.78° C | 55% | 1021.6 hPa | 0 mm | - | 22 W/m² | - |
| 1777248580 | 12.78° C | 55% | 1021.4 hPa | 0 mm | - | 26 W/m² | - |
| 1777248277 | 12.78° C | 57% | 1021.9 hPa | 0 mm | - | 29 W/m² | - |
| 1777247972 | 13.33° C | 54% | 1021.8 hPa | 0 mm | - | 34 W/m² | - |
| 1777247672 | 13.33° C | 54% | 1021.7 hPa | 0 mm | - | 37 W/m² | - |
| 1777247370 | 13.33° C | 54% | 1021.8 hPa | 0 mm | - | 39 W/m² | - |
| 1777247067 | 13.33° C | 53% | 1021.6 hPa | 0 mm | - | 42 W/m² | - |
* Rain latest hour (hover to see other rain measurements)
** Current wind speed in m/s (hover to see current wind gust speed)